Location: Molino di Ancona
(43.6167°N, 13.3667°E)
Time: 21:49:24
(UTC+00:00)

Cosmos 1943 - Pass Details

Date: 15 December 2019
Orbit: 835 x 849 km, 71.0° (Epoch: 26 January)

Event Time Altitude Azimuth Distance (km) Brightness Sun altitude
Exits shadow 04:34:25 26° 235° (SW) 1,593 4.3 -20.5°
Drops below altitude 10° 04:37:53 10° 200° (SSW) 2,443 5.5 -19.9°
Sets 04:40:37 0° 189° (S) 3,374 6.4 -19.4°
